Meath Environmental Platform

Observations for Trim Patrick St

Time AQI Temp °C Hum % Pres Pa CO μg/m³ H₂S μg/m³ NO μg/m³ NO₂ μg/m³ O₃ μg/m³ SO₂ μg/m³ PM1 μg/m³ PM2.5 μg/m³ PM10 μg/m³
Monday 3 August 2026
05:56 1 15.6 81 38,460 0.23 1.84 1.86 30.16 32.42 0 6.29 10.06 11.06
05:55 1 15.6 81 38,460 0.22 1.43 1.82 21.58 38.62 0 4.57 8.65 9.52
05:54 1 15.6 81 38,460 0.22 2.18 1.77 25.52 36.28 0 5.43 9.37 10.3
05:53 1 15.6 81 38,460 0.22 0.1 1.79 21.29 36.77 0 5.43 8.66 9.53
05:52 1 15.5 81 38,460 0.22 2.26 1.7 22.32 41.91 0 5.43 9.36 10.29
05:51 1 15.5 81 38,460 0.22 3.8 1.91 31.42 39.38 0 5.43 9.37 10.3
05:50 1 15.5 81 38,460 0.22 0.46 1.85 22.05 37.55 0 5.43 7.97 8.77
05:49 1 15.5 81 38,460 0.22 0 1.78 22.06 35.75 0 4.57 8.67 9.54
05:48 1 15.5 81 38,460 0.22 0.07 1.92 21.32 38.31 0 4.57 7.97 8.77
05:47 1 15.5 81 38,460 0.22 0.41 1.94 18.04 41.68 0 4.57 8.66 9.53
05:46 1 15.5 81 38,460 0.21 2.89 1.84 24.64 42 0 4.57 8.67 9.54
05:45 1 15.5 81 38,460 0.22 0.62 1.92 21.79 37.12 0 4.57 9.37 10.31
05:44 1 15.5 81 38,460 0.22 1.71 1.96 25.57 33.56 0 5.43 8.68 9.54
05:43 1 15.5 81 38,460 0.22 0 1.87 18.65 41.18 0 6.29 10.07 11.08
05:42 1 15.5 81 38,460 0.22 0 1.93 17.61 41.41 0 5.43 9.37 10.31
05:41 1 15.5 81 38,460 0.21 0 1.96 19.32 40.51 0 4.57 8.68 9.54
05:40 1 15.5 81 38,460 0.22 0 1.95 15.61 42.44 0 6.29 10.07 11.08
05:39 1 15.4 81 38,460 0.21 0 1.92 14.03 44.67 0 5.43 9.37 10.31
05:38 1 15.4 80 38,460 0.21 2.42 1.94 29.42 32.15 0 5.43 7.98 8.78
05:36 1 15.4 81 38,460 0.21 0 1.84 16.94 41.01 0 5.43 9.37 10.3